Year,Month,Day,Hour,Minute,Value (Times are PST for temperature in C)
2013,04,30,15,14,11.20
2013,04,30,15,15,11.20
2013,04,30,15,16,11.10
2013,04,30,15,17,11.10
2013,04,30,15,18,11.10
2013,04,30,15,19,11.10
2013,04,30,15,20,11.10
2013,04,30,15,21,11.30
2013,04,30,15,22,11.30
2013,04,30,15,23,11.40
2013,04,30,15,24,11.40
2013,04,30,15,25,11.50
2013,04,30,15,26,11.60
2013,04,30,15,27,11.60
2013,04,30,15,28,11.60
2013,04,30,15,29,11.60
2013,04,30,15,30,11.50
2013,04,30,15,31,11.40
2013,04,30,15,32,11.40
2013,04,30,15,33,11.40
2013,04,30,15,34,11.50
2013,04,30,15,35,11.50
2013,04,30,15,36,11.60
2013,04,30,15,37,11.60
2013,04,30,15,38,11.50
2013,04,30,15,39,11.40
2013,04,30,15,40,11.30
2013,04,30,15,41,11.10
2013,04,30,15,42,11.00
2013,04,30,15,43,10.90
2013,04,30,15,44,10.90
2013,04,30,15,45,10.80
2013,04,30,15,46,10.80
2013,04,30,15,47,10.80
2013,04,30,15,48,11.00
2013,04,30,15,49,11.00
2013,04,30,15,50,11.00
2013,04,30,15,51,11.00
2013,04,30,15,52,11.10
2013,04,30,15,53,11.10
2013,04,30,15,54,11.10
2013,04,30,15,55,11.20
2013,04,30,15,56,11.30
2013,04,30,15,57,11.30
2013,04,30,15,58,11.30
2013,04,30,15,59,11.30
2013,04,30,16,00,11.30
2013,04,30,16,01,11.40
2013,04,30,16,02,11.40
2013,04,30,16,03,11.40
2013,04,30,16,04,11.30
2013,04,30,16,05,11.30
2013,04,30,16,06,11.30
2013,04,30,16,07,11.30
2013,04,30,16,08,11.20
2013,04,30,16,09,11.20
2013,04,30,16,10,11.20
2013,04,30,16,11,11.20
2013,04,30,16,12,11.30
2013,04,30,16,13,11.40
2013,04,30,16,14,11.40
2013,04,30,16,15,11.40
2013,04,30,16,16,11.40
2013,04,30,16,17,11.30
2013,04,30,16,18,11.20
2013,04,30,16,19,11.10
2013,04,30,16,20,11.10
2013,04,30,16,21,11.10
2013,04,30,16,22,11.20
2013,04,30,16,23,11.20
2013,04,30,16,24,11.10
2013,04,30,16,25,10.90
2013,04,30,16,26,10.90
2013,04,30,16,27,10.80
2013,04,30,16,28,10.80
2013,04,30,16,29,10.80
2013,04,30,16,30,10.80
2013,04,30,16,31,10.70
2013,04,30,16,32,10.70
2013,04,30,16,33,10.70
2013,04,30,16,34,10.70
2013,04,30,16,35,10.60
2013,04,30,16,36,10.60
2013,04,30,16,37,10.60
2013,04,30,16,38,10.60
2013,04,30,16,39,10.50
2013,04,30,16,40,10.40
2013,04,30,16,41,10.50
2013,04,30,16,42,10.40
2013,04,30,16,43,10.30
2013,04,30,16,44,10.30
2013,04,30,16,45,10.20
2013,04,30,16,46,10.20
2013,04,30,16,47,10.20
2013,04,30,16,48,10.20
2013,04,30,16,49,10.20
2013,04,30,16,50,10.30
2013,04,30,16,51,10.40
2013,04,30,16,52,10.40
2013,04,30,16,53,10.30
2013,04,30,16,54,10.30
2013,04,30,16,55,10.30
2013,04,30,16,56,10.30
2013,04,30,16,57,10.40
2013,04,30,16,58,10.40
2013,04,30,16,59,10.50
2013,04,30,17,00,10.40
2013,04,30,17,01,10.30
2013,04,30,17,02,10.30
2013,04,30,17,03,10.30
2013,04,30,17,04,10.30
2013,04,30,17,05,10.30
2013,04,30,17,06,10.40
2013,04,30,17,07,10.40
2013,04,30,17,08,10.40
2013,04,30,17,09,10.30
2013,04,30,17,10,10.30
2013,04,30,17,11,10.30
2013,04,30,17,12,10.30
2013,04,30,17,13,10.30
2013,04,30,17,14,10.30
2013,04,30,17,15,10.20
2013,04,30,17,16,10.20
2013,04,30,17,17,10.20
2013,04,30,17,18,10.20
2013,04,30,17,19,10.20
2013,04,30,17,20,10.20
2013,04,30,17,21,10.20
2013,04,30,17,22,10.20
2013,04,30,17,23,10.20
2013,04,30,17,24,10.10
2013,04,30,17,25,10.20
2013,04,30,17,26,10.30
2013,04,30,17,27,10.30
2013,04,30,17,28,10.30
2013,04,30,17,29,10.20
2013,04,30,17,30,10.20
2013,04,30,17,31,10.10
2013,04,30,17,32,10.10
2013,04,30,17,33,10.10
2013,04,30,17,34,10.10
2013,04,30,17,35,10.00
2013,04,30,17,36,10.00
2013,04,30,17,37,9.90
2013,04,30,17,38,9.90
2013,04,30,17,39,9.90
2013,04,30,17,40,10.00
2013,04,30,17,41,10.00
2013,04,30,17,42,10.10
2013,04,30,17,43,10.10
2013,04,30,17,44,10.00
2013,04,30,17,45,9.90
2013,04,30,17,46,9.90
2013,04,30,17,47,9.80
2013,04,30,17,48,9.80
2013,04,30,17,49,9.80
2013,04,30,17,50,9.80
2013,04,30,17,51,9.80
2013,04,30,17,52,9.80
2013,04,30,17,53,9.70
2013,04,30,17,54,9.70
2013,04,30,17,55,9.70
2013,04,30,17,56,9.70
2013,04,30,17,57,9.60
2013,04,30,17,58,9.60
2013,04,30,17,59,9.60
2013,04,30,18,00,9.60
2013,04,30,18,01,9.60
2013,04,30,18,02,9.60
2013,04,30,18,03,9.60
2013,04,30,18,04,9.60
2013,04,30,18,05,9.60
2013,04,30,18,06,9.50
2013,04,30,18,07,9.50
2013,04,30,18,08,9.50
2013,04,30,18,09,9.60
2013,04,30,18,10,9.60
2013,04,30,18,11,9.60
2013,04,30,18,12,9.70
2013,04,30,18,13,9.60
2013,04,30,18,14,9.60
2013,04,30,18,15,9.60
2013,04,30,18,16,9.60
2013,04,30,18,17,9.60
2013,04,30,18,18,9.60
2013,04,30,18,19,9.70
2013,04,30,18,20,9.60
2013,04,30,18,21,9.60
2013,04,30,18,22,9.60
2013,04,30,18,23,9.60
2013,04,30,18,24,9.50
2013,04,30,18,25,9.50
2013,04,30,18,26,9.50
2013,04,30,18,27,9.50
2013,04,30,18,28,9.60
2013,04,30,18,29,9.60
2013,04,30,18,30,9.70
2013,04,30,18,31,9.70
2013,04,30,18,32,9.70
2013,04,30,18,33,9.70
2013,04,30,18,34,9.80
2013,04,30,18,35,9.70
2013,04,30,18,36,9.70
2013,04,30,18,37,9.70
2013,04,30,18,38,9.70
2013,04,30,18,39,9.70
2013,04,30,18,40,9.70
2013,04,30,18,41,9.80
2013,04,30,18,42,9.80
2013,04,30,18,43,9.80
2013,04,30,18,44,9.90
2013,04,30,18,45,9.90
2013,04,30,18,46,9.90
2013,04,30,18,47,9.90
2013,04,30,18,48,9.90
2013,04,30,18,49,9.90
2013,04,30,18,50,9.90
2013,04,30,18,51,9.90
2013,04,30,18,52,10.00
2013,04,30,18,53,10.00
2013,04,30,18,54,10.10
2013,04,30,18,55,10.10
2013,04,30,18,56,10.20
2013,04,30,18,57,10.20
2013,04,30,18,58,10.20
2013,04,30,18,59,10.30
2013,04,30,19,00,10.30
2013,04,30,19,01,10.30
2013,04,30,19,02,10.30
2013,04,30,19,03,10.30
2013,04,30,19,04,10.30
2013,04,30,19,05,10.30
2013,04,30,19,06,10.30
2013,04,30,19,07,10.30
2013,04,30,19,08,10.30
2013,04,30,19,09,10.30
2013,04,30,19,10,10.40
2013,04,30,19,11,10.40
2013,04,30,19,12,10.40
2013,04,30,19,13,10.40
2013,04,30,19,14,10.40
2013,04,30,19,15,10.40
2013,04,30,19,16,10.40
2013,04,30,19,17,10.30
2013,04,30,19,18,10.30
2013,04,30,19,19,10.30
2013,04,30,19,20,10.30
2013,04,30,19,21,10.30
2013,04,30,19,22,10.30
2013,04,30,19,23,10.30
2013,04,30,19,24,10.30
2013,04,30,19,25,10.30
2013,04,30,19,26,10.30
2013,04,30,19,27,10.30
2013,04,30,19,28,10.30
2013,04,30,19,29,10.30
2013,04,30,19,30,10.30
2013,04,30,19,31,10.30
2013,04,30,19,32,10.30
2013,04,30,19,33,10.30
2013,04,30,19,34,10.30
2013,04,30,19,35,10.30
2013,04,30,19,36,10.20
2013,04,30,19,37,10.20
2013,04,30,19,38,10.20
2013,04,30,19,39,10.20
2013,04,30,19,40,10.20
2013,04,30,19,41,10.20
2013,04,30,19,42,10.10
2013,04,30,19,43,10.10
2013,04,30,19,44,10.10
2013,04,30,19,45,10.10
2013,04,30,19,46,10.10
2013,04,30,19,47,10.00
2013,04,30,19,48,10.00
2013,04,30,19,49,10.00
2013,04,30,19,50,9.90
2013,04,30,19,51,9.90
2013,04,30,19,52,9.90
2013,04,30,19,53,9.90
2013,04,30,19,54,9.90
2013,04,30,19,55,9.90
2013,04,30,19,56,9.80
2013,04,30,19,57,9.80
2013,04,30,19,58,9.80
2013,04,30,19,59,9.80
2013,04,30,20,00,9.70
2013,04,30,20,01,9.70
2013,04,30,20,02,9.70
2013,04,30,20,03,9.70
2013,04,30,20,04,9.70
2013,04,30,20,05,9.70
2013,04,30,20,06,9.60
2013,04,30,20,07,9.60
2013,04,30,20,08,9.60
2013,04,30,20,09,9.60
2013,04,30,20,10,9.50
2013,04,30,20,11,9.50
2013,04,30,20,12,9.40
2013,04,30,20,13,9.40
2013,04,30,20,14,9.40
2013,04,30,20,15,9.30
2013,04,30,20,16,9.30
2013,04,30,20,17,9.30
2013,04,30,20,18,9.20
2013,04,30,20,19,9.20
2013,04,30,20,20,9.20
2013,04,30,20,21,9.20
2013,04,30,20,22,9.20
2013,04,30,20,23,9.10
2013,04,30,20,24,9.10
2013,04,30,20,25,9.10
2013,04,30,20,26,9.10
2013,04,30,20,27,9.00
2013,04,30,20,28,9.00
2013,04,30,20,29,8.90
2013,04,30,20,30,8.90
2013,04,30,20,31,8.90
2013,04,30,20,32,8.90
2013,04,30,20,33,8.80
2013,04,30,20,34,8.80
2013,04,30,20,35,8.80
2013,04,30,20,36,8.80
2013,04,30,20,37,8.70
2013,04,30,20,38,8.70
2013,04,30,20,39,8.70
2013,04,30,20,40,8.70
2013,04,30,20,41,8.60
2013,04,30,20,42,8.60
2013,04,30,20,43,8.60
2013,04,30,20,44,8.60
2013,04,30,20,45,8.60
2013,04,30,20,46,8.60
2013,04,30,20,47,8.60
2013,04,30,20,48,8.60
2013,04,30,20,49,8.60
2013,04,30,20,50,8.60
2013,04,30,20,51,8.60
2013,04,30,20,52,8.60
2013,04,30,20,53,8.50
2013,04,30,20,54,8.50
2013,04,30,20,55,8.50
2013,04,30,20,56,8.50
2013,04,30,20,57,8.50
2013,04,30,20,58,8.50
2013,04,30,20,59,8.40
2013,04,30,21,00,8.40
2013,04,30,21,01,8.40
2013,04,30,21,02,8.40
2013,04,30,21,03,8.40
2013,04,30,21,04,8.40
2013,04,30,21,05,8.40
2013,04,30,21,06,8.30
2013,04,30,21,07,8.30
2013,04,30,21,08,8.30
2013,04,30,21,09,8.30
2013,04,30,21,10,8.30
2013,04,30,21,11,8.30
2013,04,30,21,12,8.30
2013,04,30,21,13,8.30
2013,04,30,21,14,8.20
2013,04,30,21,15,8.20
2013,04,30,21,16,8.20
2013,04,30,21,17,8.20
2013,04,30,21,18,8.20
2013,04,30,21,19,8.20
2013,04,30,21,20,8.20
2013,04,30,21,21,8.20
2013,04,30,21,22,8.10
2013,04,30,21,23,8.10
2013,04,30,21,24,8.10
2013,04,30,21,25,8.00
2013,04,30,21,26,8.00
2013,04,30,21,27,8.00
2013,04,30,21,28,7.90
2013,04,30,21,29,7.90
2013,04,30,21,30,7.80
2013,04,30,21,31,7.80
2013,04,30,21,32,7.80
2013,04,30,21,33,7.80
2013,04,30,21,34,7.80
2013,04,30,21,35,7.80
2013,04,30,21,36,7.80
2013,04,30,21,37,7.80
2013,04,30,21,38,7.80
2013,04,30,21,39,7.80
2013,04,30,21,40,7.80
2013,04,30,21,41,7.80
2013,04,30,21,42,7.80
2013,04,30,21,43,7.80
2013,04,30,21,44,7.80
2013,04,30,21,45,7.80
2013,04,30,21,46,7.80
2013,04,30,21,47,7.80
2013,04,30,21,48,7.80
2013,04,30,21,49,7.80
2013,04,30,21,50,7.80
2013,04,30,21,51,7.80
2013,04,30,21,52,7.80
2013,04,30,21,53,7.80
2013,04,30,21,54,7.80
2013,04,30,21,55,7.80
2013,04,30,21,56,7.80
2013,04,30,21,57,7.80
2013,04,30,21,58,7.80
2013,04,30,21,59,7.80
2013,04,30,22,00,7.80
2013,04,30,22,01,7.80
2013,04,30,22,02,7.80
2013,04,30,22,03,7.80
2013,04,30,22,04,7.70
2013,04,30,22,05,7.70
2013,04,30,22,06,7.70
2013,04,30,22,07,7.60
2013,04,30,22,08,7.60
2013,04,30,22,09,7.60
2013,04,30,22,10,7.60
2013,04,30,22,11,7.60
2013,04,30,22,12,7.60
2013,04,30,22,13,7.60
2013,04,30,22,14,7.60
2013,04,30,22,15,7.60
2013,04,30,22,16,7.60
2013,04,30,22,17,7.60
2013,04,30,22,18,7.60
2013,04,30,22,19,7.60
2013,04,30,22,20,7.60
2013,04,30,22,21,7.60
2013,04,30,22,22,7.60
2013,04,30,22,23,7.60
2013,04,30,22,24,7.60
2013,04,30,22,25,7.60
2013,04,30,22,26,7.50
2013,04,30,22,27,7.50
2013,04,30,22,28,7.50
2013,04,30,22,29,7.50
2013,04,30,22,30,7.50
2013,04,30,22,31,7.50
2013,04,30,22,32,7.50
2013,04,30,22,33,7.40
2013,04,30,22,34,7.40
2013,04,30,22,35,7.40
2013,04,30,22,36,7.40
2013,04,30,22,37,7.40
2013,04,30,22,38,7.40
2013,04,30,22,39,7.40
2013,04,30,22,40,7.40
2013,04,30,22,41,7.30
2013,04,30,22,42,7.30
2013,04,30,22,43,7.30
2013,04,30,22,44,7.30
2013,04,30,22,45,7.30
2013,04,30,22,46,7.20
2013,04,30,22,47,7.20
2013,04,30,22,48,7.20
2013,04,30,22,49,7.20
2013,04,30,22,50,7.20
2013,04,30,22,51,7.20
2013,04,30,22,52,7.20
2013,04,30,22,53,7.20
2013,04,30,22,54,7.20
2013,04,30,22,55,7.20
2013,04,30,22,56,7.10
2013,04,30,22,57,7.10
2013,04,30,22,58,7.10
2013,04,30,22,59,7.10
2013,04,30,23,00,7.10
2013,04,30,23,01,7.10
2013,04,30,23,02,7.10
2013,04,30,23,03,7.10
2013,04,30,23,04,7.10
2013,04,30,23,05,7.10
2013,04,30,23,06,7.10
2013,04,30,23,07,7.10
2013,04,30,23,08,7.10
2013,04,30,23,09,7.10
2013,04,30,23,10,7.10
2013,04,30,23,11,7.10
2013,04,30,23,12,7.00
2013,04,30,23,13,7.00
2013,04,30,23,14,7.00
2013,04,30,23,15,7.00
2013,04,30,23,16,7.00
2013,04,30,23,17,7.00
2013,04,30,23,18,7.00
2013,04,30,23,19,7.00
2013,04,30,23,20,7.00
2013,04,30,23,21,7.00
2013,04,30,23,22,7.00
2013,04,30,23,23,6.90
2013,04,30,23,24,6.90
2013,04,30,23,25,6.90
2013,04,30,23,26,6.90
2013,04,30,23,27,6.90
2013,04,30,23,28,6.90
2013,04,30,23,29,6.90
2013,04,30,23,30,6.90
2013,04,30,23,31,6.90
2013,04,30,23,32,6.90
2013,04,30,23,33,6.90
2013,04,30,23,34,6.90
2013,04,30,23,35,6.90
2013,04,30,23,36,6.80
2013,04,30,23,37,6.80
2013,04,30,23,38,6.80
2013,04,30,23,39,6.80
2013,04,30,23,40,6.80
2013,04,30,23,41,6.70
2013,04,30,23,42,6.70
2013,04,30,23,43,6.70
2013,04,30,23,44,6.70
2013,04,30,23,45,6.70
2013,04,30,23,46,6.70
2013,04,30,23,47,6.60
2013,04,30,23,48,6.60
2013,04,30,23,49,6.60
2013,04,30,23,50,6.60
2013,04,30,23,51,6.60
2013,04,30,23,52,6.60
2013,04,30,23,53,6.60
2013,04,30,23,54,6.60
2013,04,30,23,55,6.60
2013,04,30,23,56,6.60
2013,04,30,23,57,6.50
2013,04,30,23,58,6.50
2013,04,30,23,59,6.50
